EUTELSAT 7C

Last updated on Thu Nov 21 2024 00:02:44 GMT+0000 (Coordinated Universal Time)

1 44334U 19034B 24325.34007743 .00000050 00000+0 00000+0 0 9992 2 44334 0.0711 188.7210 0003332 37.5382 323.0274 1.00270063 1084
UTC large
Height (km)
Speed (km/s)
/
Latitude / Longitude
Inclination (degrees)
Orbital Period (minutes)
Azimuth
Elevation
Range (km)
Doppler Factor

Next 0 passes for location: London (51.5072 / 0.1276)

Sorry there are no passes over London.